Location: Burgberg
(50.1428°N, 11.0671°E)
Time: 17:00:49
(UTC+00:00)

Cosmos 1680 Rocket - Pass Details

Date: 26 January 2020
Orbit: 760 x 781 km, 74.1° (Epoch: 25 February)

Event Time Altitude Azimuth Distance (km) Brightness Sun altitude
Exits shadow 05:48:11 - 237° (WSW) 3,073 6.2 -11.2°
Reaches altitude 10° 05:50:20 10° 247° (WSW) 2,335 5.6 -10.9°
Maximum altitude 05:54:57 30° 308° (NW) 1,391 4.3 -10.2°
Drops below altitude 10° 05:59:36 10° 8° (N) 2,343 5.9 -9.5°
Sets 06:02:17 0° 20° (NNE) 3,272 6.8 -9.1°
